Wind_Speed
33 34 34 35 35 34 34 33 32 30 29 28 27 26 24 22 19 17 15 15 16 18 20 22 24 25 26 27 27 28 28 29 29 30 30 30 30 29 28 28 27 25 24 23 23 22 21 21 20 21 21 22 23 23 24 25 25 26 27 28 29 30 30 31 31 31 31 31 31 31 31 31 31 31 31 31 32 32 33 33 33 33 33 33 32 32
33 33 34 34 34 33 32 31 30 28 26 25 25 24 22 21 19 17 15 15 15 16 18 19 21 22 23 23 24 25 25 26 27 27 27 27 26 26 25 25 24 23 22 22 21 20 20 20 20 21 21 22 23 24 24 25 26 27 28 29 30 31 31 31 31 31 31 31 30 30 31 31 31 32 32 33 33 33 32 32 31 30 29 29 28 27
32 33 33 33 32 32 30 29 28 26 24 23 22 22 21 20 18 17 16 15 15 16 17 17 18 19 20 21 21 22 22 22 22 22 22 22 22 22 21 21 21 20 20 20 20 20 20 20 21 21 22 23 23 24 25 26 27 28 29 30 31 31 31 32 31 31 31 31 31 31 32 32 33 33 33 33 32 31 29 28 26 25 24 23 22 21
32 33 32 32 31 30 29 27 26 24 23 22 21 20 20 19 18 17 16 15 15 15 15 16 16 17 17 18 18 18 18 18 18 18 18 18 18 18 18 18 18 18 19 19 19 20 20 21 22 22 23 24 25 26 27 28 29 29 30 31 31 31 32 32 32 32 32 32 32 33 33 33 33 33 31 30 28 26 24 22 21 20 19 19 18 18
31 31 30 30 29 28 27 25 24 22 22 21 20 19 19 18 17 17 16 16 15 14 14 14 14 15 15 15 16 16 16 16 16 16 16 16 17 17 17 18 18 18 19 19 20 21 22 23 23 24 25 26 27 28 28 29 30 31 31 31 32 32 32 32 32 33 33 33 33 33 33 32 31 29 27 25 22 20 19 18 17 17 17 17 17 17
29 29 28 27 26 25 24 23 22 21 20 20 19 18 18 17 17 17 16 16 15 15 14 14 14 14 15 15 15 16 16 16 17 17 17 18 18 18 19 19 20 20 21 21 22 23 24 25 26 27 27 28 29 29 30 30 31 32 32 32 32 32 33 33 33 33 33 33 32 31 30 28 26 23 21 19 18 17 16 16 16 16 17 17 18 18
27 26 25 24 23 22 20 20 19 19 19 18 18 18 18 18 17 17 17 17 17 17 17 17 17 17 17 17 18 18 18 18 19 19 19 20 20 20 21 22 22 23 23 24 25 25 26 27 28 28 29 29 30 30 31 31 32 32 33 33 33 33 33 33 33 32 31 30 28 26 24 22 20 18 17 16 16 16 16 16 17 17 18 19 19 20
23 23 22 21 20 18 18 17 17 17 17 17 17 18 18 18 18 18 18 18 18 18 18 19 19 19 19 20 20 20 20 20 21 21 22 22 22 23 23 24 24 25 25 26 27 27 28 29 29 30 30 30 31 31 32 32 33 33 33 34 34 34 33 32 31 29 27 25 23 21 19 18 17 16 16 16 16 17 17 18 18 19 20 20 21 21
20 20 19 18 17 16 16 16 17 17 17 17 17 17 18 18 18 19 19 19 19 19 19 19 20 20 21 21 21 22 22 22 23 23 24 24 25 25 25 26 26 27 27 28 28 29 29 30 31 31 31 32 32 33 33 34 34 35 35 34 34 33 31 29 27 24 22 20 18 17 16 16 16 16 16 17 17 18 19 19 20 20 21 21 22 22
18 17 17 17 17 16 17 17 18 18 18 18 18 18 18 19 19 19 20 20 20 20 20 20 21 21 22 22 23 23 23 24 24 25 25 26 26 26 27 27 28 28 29 29 30 30 31 31 32 33 33 34 34 34 35 35 36 35 34 33 31 29 26 24 21 19 18 17 16 16 16 16 16 17 17 18 18 19 20 20 20 21 21 22 22 22
17 17 17 17 18 18 19 19 20 20 21 21 21 21 21 21 20 21 21 21 21 22 22 22 22 23 23 24 24 24 25 25 25 26 26 27 27 28 28 28 29 30 30 31 31 32 33 33 34 34 35 35 35 36 36 35 35 33 31 29 26 23 21 19 17 16 15 15 15 16 16 17 17 18 18 19 19 20 20 21 21 22 22 22 23 23
17 18 18 19 20 21 21 22 22 23 23 23 23 23 23 23 23 23 23 23 23 23 24 24 24 25 25 25 26 26 27 27 27 28 28 29 29 29 30 30 31 32 32 33 33 34 34 35 35 35 35 35 35 35 34 32 31 28 26 23 20 18 16 15 15 15 15 15 16 17 17 18 18 19 19 20 20 21 21 21 22 22 23 23 24 24
19 20 21 22 22 23 24 24 25 25 25 25 25 25 26 26 26 26 26 26 26 26 26 27 27 27 28 28 28 28 29 29 30 30 31 31 31 32 32 33 33 34 34 34 35 35 35 35 34 34 34 33 32 31 29 27 25 22 20 17 16 15 15 15 15 15 16 16 17 18 18 19 19 20 20 20 21 21 22 22 22 23 23 24 24 25
21 22 23 23 24 25 25 26 26 27 27 27 28 28 28 28 28 28 28 28 29 29 29 29 29 30 30 30 30 31 31 31 31 32 32 33 33 33 34 34 34 35 35 35 34 34 33 33 32 31 30 29 28 26 23 21 19 17 15 15 14 14 15 15 16 16 17 17 18 19 19 19 20 20 21 21 21 22 22 23 23 24 24 25 25 26
22 23 24 24 25 25 26 27 27 28 28 28 29 29 29 29 29 30 30 30 30 30 30 31 31 31 31 31 32 32 32 32 32 32 33 33 33 33 34 34 33 33 33 32 32 31 30 29 28 27 26 24 22 20 18 16 15 14 14 14 14 15 15 16 17 17 18 18 19 19 20 20 20 21 21 22 22 23 23 24 24 25 25 26 26 27
23 24 24 25 25 26 26 27 27 28 28 28 28 29 29 30 30 30 30 30 30 31 31 31 31 31 31 31 32 32 32 32 32 32 32 32 32 32 32 32 31 30 29 29 28 27 26 25 23 22 21 19 18 16 15 14 14 14 14 14 15 16 16 17 18 18 19 19 20 20 20 21 21 22 22 23 23 24 24 25 25 26 26 27 27 28
23 24 24 24 25 25 25 26 26 27 27 27 27 28 28 29 29 29 29 29 29 30 29 30 30 31 31 31 31 31 31 31 31 30 30 30 30 30 30 30 29 27 26 25 24 23 22 20 19 18 17 16 15 14 14 14 14 14 15 15 16 17 17 18 18 19 19 20 20 21 21 22 22 22 23 24 24 25 25 26 27 27 28 28 28 29
23 23 23 24 24 24 24 24 25 25 25 26 26 26 27 27 27 27 28 28 28 28 28 28 29 29 30 30 30 29 30 30 29 29 28 27 27 28 29 28 27 25 23 22 21 20 19 17 17 16 15 15 14 14 14 14 15 15 16 16 17 18 18 19 20 20 20 21 21 22 22 22 23 23 24 25 25 26 26 27 27 28 29 29 29 30
22 22 22 23 23 23 23 23 23 23 24 24 24 25 25 25 26 26 26 26 26 27 27 27 27 27 28 29 28 28 28 28 28 27 26 25 25 26 27 27 25 23 21 20 19 18 17 16 15 15 15 15 15 15 15 15 16 16 17 18 18 19 20 20 21 21 22 22 22 23 23 23 24 24 25 26 26 27 27 28 28 29 29 30 30 31
21 22 22 22 22 22 22 22 22 23 23 23 23 23 24 24 24 24 25 25 25 25 25 26 26 26 27 27 27 27 27 27 27 26 24 23 24 25 26 25 23 21 20 19 18 17 16 15 15 16 16 16 16 16 16 17 17 18 18 19 20 20 21 21 22 22 23 23 23 23 24 24 25 25 26 27 27 28 28 29 29 30 30 31 31 32
21 21 21 21 21 21 21 21 22 22 22 22 23 23 23 23 23 23 24 24 24 24 25 25 26 26 26 26 26 27 26 26 26 24 23 22 23 25 26 25 22 20 19 19 18 17 16 16 16 16 17 17 17 17 17 18 19 19 20 20 21 22 22 22 23 23 23 24 24 25 25 25 26 27 27 28 28 29 29 30 30 31 31 32 32 32
21 21 21 21 21 21 21 21 22 22 22 22 22 22 22 22 23 23 23 23 24 24 24 25 25 25 25 26 26 26 26 26 25 24 22 22 23 24 26 24 22 20 19 19 18 17 16 16 17 18 18 18 18 19 19 19 20 21 21 22 22 23 23 23 24 24 24 25 25 26 26 27 27 28 28 29 29 30 30 31 31 32 32 33 33 33
21 21 21 21 21 21 21 22 22 22 22 22 23 23 23 23 23 22 23 23 23 24 24 24 24 25 25 25 26 26 26 25 25 24 22 21 22 24 25 24 22 20 19 19 18 18 17 18 18 19 20 20 20 20 20 21 21 22 22 23 23 24 24 25 25 25 26 26 26 27 27 28 28 29 29 30 30 31 31 32 32 33 33 33 34 34
21 21 21 21 21 21 22 22 22 22 22 22 23 23 23 23 23 23 23 23 24 24 24 24 24 25 25 26 26 26 26 26 25 24 22 21 22 24 25 24 22 20 20 19 19 19 19 19 20 21 21 21 21 21 21 22 22 23 23 24 24 25 25 26 26 26 27 27 28 28 28 29 29 30 30 31 31 32 32 33 33 33 34 34 34 34
20 21 21 21 21 21 21 21 21 22 22 22 22 22 22 23 23 23 24 24 24 24 24 24 24 24 25 26 26 26 26 26 25 24 23 22 22 23 25 24 22 20 20 20 20 20 20 20 21 22 22 22 22 22 22 23 23 24 25 25 25 26 26 27 27 27 28 28 29 29 29 30 30 31 31 32 32 32 33 33 34 34 34 34 34 34
20 20 21 21 21 21 21 21 21 21 21 21 22 22 22 22 23 23 24 25 25 25 24 24 24 25 25 25 26 26 27 26 25 24 23 22 22 23 25 24 22 21 20 21 21 21 21 21 22 23 23 23 23 23 23 24 24 25 25 26 27 27 27 28 28 28 29 29 29 30 30 31 31 32 32 33 33 33 34 34 34 34 34 35 35 34
20 21 21 21 21 21 21 21 22 22 22 22 22 22 22 22 23 23 24 25 25 25 25 24 24 25 25 25 26 26 27 26 25 24 23 22 22 23 24 24 23 22 21 21 22 22 22 22 23 24 24 23 23 24 24 25 25 26 26 27 28 28 28 28 29 29 29 30 30 31 31 32 32 33 33 34 34 34 34 35 35 35 35 35 35 34
21 21 21 21 21 21 22 22 22 23 23 23 23 23 23 22 23 23 24 25 25 25 25 25 24 24 24 25 25 26 27 27 26 25 24 23 22 22 24 24 23 22 22 22 22 23 23 23 24 24 24 24 25 25 25 26 26 27 28 28 28 29 29 29 29 30 30 31 31 32 32 33 33 34 34 35 35 35 35 35 36 36 36 35 35 34
21 21 21 21 22 22 22 23 23 24 24 24 24 24 24 24 23 23 24 24 25 25 25 25 25 24 24 24 25 26 27 27 27 26 25 23 22 23 24 24 24 23 23 23 23 23 24 24 25 25 25 25 25 26 26 27 28 28 28 29 29 29 30 30 30 31 31 32 32 33 33 34 34 35 35 35 36 36 36 36 36 36 36 36 35 35
21 22 22 22 22 22 23 23 23 24 24 25 25 25 25 25 24 24 24 24 24 24 24 25 25 25 24 24 25 26 27 28 28 27 25 24 23 23 24 24 24 24 24 23 23 23 24 25 25 25 25 26 26 27 27 28 28 29 29 29 30 30 30 30 31 31 32 32 33 33 34 35 35 36 36 36 37 37 37 37 37 37 37 36 36 35
22 22 22 23 23 23 24 24 24 24 25 25 25 25 25 25 25 25 25 25 24 24 24 24 24 24 24 24 24 25 26 28 28 28 26 25 24 24 24 24 24 24 24 24 23 23 23 24 25 25 26 26 26 27 27 28 28 29 29 30 30 30 31 31 32 32 32 33 33 34 35 35 36 36 37 37 37 38 38 38 38 38 37 37 36 35
22 23 23 23 24 24 24 25 25 25 25 25 26 26 26 26 26 26 26 25 25 25 24 24 24 24 24 24 24 24 26 27 28 28 27 26 25 24 24 24 24 25 25 25 24 23 23 23 23 24 25 26 26 27 28 28 29 29 30 30 30 31 31 32 32 33 33 34 34 35 35 36 37 37 38 38 38 38 38 38 38 38 38 37 37 36
23 23 24 24 24 25 25 25 25 25 26 26 26 26 26 26 26 26 26 26 26 25 25 24 24 24 24 24 24 25 26 27 28 28 27 26 25 25 25 25 24 25 25 25 25 24 24 23 23 23 24 24 25 26 28 28 29 30 30 30 30 31 31 32 33 33 34 34 35 36 36 37 38 38 38 38 38 38 38 38 38 38 38 37 37 36
23 23 24 24 24 25 25 25 26 26 26 26 26 26 26 26 27 27 27 27 26 26 25 25 24 24 24 24 24 25 26 27 28 28 27 26 26 25 25 25 25 25 25 25 25 25 25 25 24 24 24 24 25 26 27 28 29 29 30 30 30 31 31 32 33 33 34 35 36 36 37 38 38 38 39 39 39 38 38 38 38 38 38 37 37 37
23 24 24 24 25 25 25 26 26 26 26 26 26 26 27 27 27 27 27 27 27 26 26 25 25 24 24 24 24 25 26 27 28 28 27 27 26 26 25 25 25 25 25 25 25 25 26 26 26 26 26 25 25 25 26 27 28 29 29 30 30 31 32 32 33 34 35 35 36 37 37 38 38 39 39 39 38 38 38 38 37 37 37 37 37 37
24 24 24 25 25 25 25 26 26 26 26 26 27 27 27 27 27 27 27 27 27 26 26 26 25 25 25 24 24 24 25 27 27 27 27 27 26 26 25 25 25 26 26 26 26 26 26 27 27 27 27 27 26 26 26 27 28 28 29 29 30 31 32 32 33 34 34 35 36 36 37 37 38 38 38 38 38 38 37 37 37 37 37 37 37 36
24 24 25 25 25 25 26 26 26 26 26 26 27 27 27 27 27 27 27 27 27 26 26 26 25 25 25 25 25 25 25 26 27 27 27 27 26 26 25 25 26 26 26 26 26 27 27 27 27 28 28 28 28 27 27 27 28 28 28 29 30 30 31 32 33 33 34 34 35 35 36 36 37 37 37 37 37 37 37 37 37 36 36 36 36 36
25 25 25 25 26 26 26 26 26 26 26 26 26 27 27 27 27 27 27 27 27 26 26 26 25 25 25 25 25 25 25 25 26 26 27 26 26 26 25 25 25 26 26 26 27 27 28 28 28 28 28 28 29 29 29 29 28 28 29 29 29 30 30 31 32 32 33 33 33 34 34 35 35 36 36 36 36 36 36 36 36 36 36 36 36 36
25 25 25 26 26 26 26 26 26 26 26 26 26 26 27 27 27 27 27 27 27 26 26 26 25 25 25 25 25 25 25 25 25 26 26 26 26 25 25 25 25 26 26 27 27 28 28 29 29 29 29 29 29 29 29 30 29 29 29 29 29 29 30 30 30 31 31 31 31 32 32 33 34 34 35 35 35 35 35 35 35 35 35 35 35 35
25 25 26 26 26 26 26 26 26 26 26 26 26 27 27 27 27 27 27 27 27 26 26 26 25 25 25 25 25 25 25 24 25 25 25 25 25 25 25 25 26 26 27 28 28 29 29 29 30 30 30 30 30 30 30 30 30 30 30 30 29 29 29 29 29 29 29 30 30 30 31 31 32 33 33 34 34 34 34 34 34 34 34 34 34 35
25 26 26 26 26 26 26 26 26 26 26 26 26 26 26 26 26 26 27 27 27 26 26 25 25 25 25 25 25 25 25 24 24 24 24 24 24 25 25 25 26 27 27 28 28 29 29 30 30 30 31 31 31 31 31 30 30 30 30 30 30 29 29 28 28 28 28 29 29 29 30 30 31 32 32 32 33 33 33 33 33 33 34 34 35 35
26 26 26 26 26 26 26 26 26 26 26 26 26 26 26 26 26 26 26 26 26 26 26 25 24 24 24 25 25 25 24 24 24 24 24 24 24 25 25 26 27 27 28 29 29 29 30 30 31 31 31 31 32 31 31 30 30 30 30 30 30 29 29 28 28 28 28 28 28 29 29 30 30 31 31 31 31 32 32 32 32 33 33 34 35 35
26 26 26 26 26 26 26 26 26 26 26 26 26 26 26 26 26 26 26 26 26 26 25 25 24 23 23 24 24 25 24 24 24 24 24 24 25 25 26 27 28 28 29 29 29 30 30 30 31 31 32 32 32 32 31 30 30 30 30 30 30 29 28 27 27 27 27 27 28 28 29 30 30 30 31 31 31 31 31 31 32 32 33 34 35 35
26 26 26 26 26 26 26 26 26 26 26 26 26 26 26 26 26 25 25 25 25 25 25 24 23 23 22 22 23 24 24 24 24 24 25 25 26 26 27 28 28 29 29 29 30 30 30 31 31 31 32 32 32 32 31 30 30 30 29 30 29 29 28 27 27 27 27 27 27 28 29 30 30 30 30 30 30 30 30 31 31 32 33 34 35 35
27 27 27 27 27 26 26 26 26 26 26 26 26 26 26 26 25 25 25 25 25 24 24 23 23 22 22 22 22 23 23 24 25 26 26 26 27 27 28 28 29 29 30 30 30 30 31 31 31 31 32 32 32 31 31 31 30 30 29 29 29 28 28 27 27 27 27 27 27 28 29 30 30 30 30 30 30 30 30 31 31 32 33 34 35 35
27 27 27 27 27 27 26 26 26 26 26 26 26 26 26 26 25 25 25 24 24 24 23 23 22 21 21 21 22 22 23 24 25 26 27 27 28 28 29 29 29 30 30 30 30 31 31 31 31 32 32 32 32 31 31 31 31 30 29 29 29 28 27 27 27 27 27 27 28 28 29 30 31 31 31 31 31 31 31 31 32 33 33 34 35 35
28 27 27 27 27 27 27 27 26 26 26 26 26 26 26 26 25 25 25 24 24 23 23 22 22 21 21 21 22 22 22 23 25 26 27 28 29 29 29 30 30 30 30 31 31 31 31 32 32 32 32 32 32 31 31 31 31 30 30 29 29 28 27 27 27 27 28 28 28 29 30 30 31 31 32 32 31 31 31 32 32 33 34 34 35 35
28 28 28 28 27 27 27 27 26 26 26 26 26 26 26 26 25 25 24 24 24 23 23 22 22 21 21 22 22 22 23 23 24 25 27 28 29 29 30 30 31 31 31 31 31 32 32 32 32 32 32 32 32 31 31 31 30 30 30 29 29 28 27 27 27 27 28 28 29 30 30 31 32 32 33 33 32 32 32 32 32 33 34 34 35 35
29 28 28 28 27 27 27 27 27 26 26 26 26 26 26 26 25 25 24 24 23 23 22 22 22 21 22 22 22 23 23 23 24 25 26 27 28 29 29 30 31 31 32 32 32 32 32 32 32 32 32 32 32 31 31 30 30 30 29 29 28 28 28 27 28 28 28 29 30 30 31 32 32 33 34 34 34 33 32 32 32 33 33 34 34 34
29 29 29 28 28 27 27 27 27 26 26 26 26 26 26 26 26 25 25 24 24 23 22 22 22 22 22 22 23 23 24 24 24 25 26 27 27 28 29 30 30 31 32 32 32 32 32 32 32 31 31 31 31 31 30 30 29 29 28 28 28 28 28 28 28 28 29 30 30 31 31 32 33 34 34 35 35 34 34 33 33 33 33 33 34 34
29 29 29 28 28 27 27 27 27 26 26 26 26 26 26 26 26 25 25 25 24 23 23 23 22 22 22 23 23 23 24 24 25 25 26 27 27 28 29 30 31 31 32 32 32 32 32 32 31 30 30 30 30 30 30 29 29 28 28 28 28 28 28 29 29 29 30 30 31 31 32 32 33 34 35 35 36 36 35 34 33 33 33 33 33 33
Wind_Direction
307 309 310 311 312 313 314 314 316 317 320 322 324 326 327 326 323 318 309 300 291 286 283 282 282 283 284 286 288 289 291 291 290 289 288 287 286 285 284 282 281 280 280 279 280 280 281 282 282 281 280 278 277 275 274 273 273 272 272 271 271 270 270 270 270 270 270 270 271 272 273 274 275 276 276 276 276 276 275 275 274 274 274 273 273 272
307 308 309 310 311 311 312 313 315 317 321 324 327 328 328 327 325 321 314 306 298 292 288 286 285 286 287 288 289 290 290 289 288 287 286 285 284 283 282 281 281 281 282 282 282 282 282 282 281 280 279 277 276 275 275 275 274 274 273 273 272 272 272 272 272 272 272 273 274 275 276 277 277 277 277 277 276 275 275 274 274 273 272 272 271 270
306 307 308 308 309 310 311 312 313 316 321 326 329 331 331 329 327 323 318 312 305 299 295 292 291 290 289 288 288 287 287 286 286 285 285 284 284 283 283 284 285 285 285 285 285 284 283 282 281 280 279 278 277 277 277 276 276 275 274 274 274 274 274 274 275 275 276 277 277 278 279 279 279 278 278 277 276 274 273 272 271 270 269 268 267 266
306 306 306 307 308 309 309 310 312 315 320 326 330 334 335 335 333 330 326 321 315 309 303 299 296 293 291 289 287 286 286 285 286 286 287 287 287 288 288 289 289 289 288 287 286 285 284 282 282 281 281 280 280 279 279 278 277 277 276 276 276 277 277 278 278 279 279 280 280 280 280 279 279 277 276 275 273 272 270 269 267 265 264 263 263 263
305 305 306 307 307 308 308 309 311 314 318 323 329 333 337 338 338 337 335 332 327 321 315 310 305 300 297 295 293 293 293 294 294 294 294 293 292 292 292 291 290 289 288 287 286 285 284 283 283 282 282 282 281 281 280 279 279 279 279 279 279 279 280 280 281 281 281 281 280 280 279 278 276 275 273 271 269 267 265 263 262 261 261 262 262 263
304 305 306 307 307 307 308 309 310 314 318 322 326 330 334 336 338 338 337 336 333 330 325 320 316 312 308 306 305 304 303 303 302 300 298 297 295 294 292 291 290 289 288 287 287 286 285 285 284 283 283 282 282 281 281 281 281 280 281 281 281 281 281 281 281 281 281 280 279 278 276 274 272 270 268 266 264 262 261 260 261 262 263 264 265 267
305 305 306 307 307 308 308 310 312 315 318 321 324 326 329 331 333 333 333 332 331 329 327 324 321 318 316 313 311 309 307 305 302 300 298 296 294 293 292 291 290 289 289 288 288 287 286 285 284 283 283 283 282 282 282 282 281 281 281 281 281 281 281 281 281 280 279 278 276 274 271 269 266 264 262 261 260 260 261 262 264 265 267 268 269 270
305 306 307 307 308 309 310 312 314 317 320 322 323 324 326 327 328 328 327 327 326 324 322 321 319 317 314 312 309 307 305 302 300 298 296 295 293 292 291 291 290 290 289 288 287 287 286 285 285 284 284 283 283 282 282 281 281 281 281 281 281 281 281 281 280 278 276 273 270 267 264 262 260 259 259 260 261 263 264 266 268 269 270 271 272 272
306 307 307 308 309 310 312 314 316 318 320 321 322 322 323 323 323 323 322 321 319 318 316 313 312 309 307 305 303 301 300 298 297 296 294 293 292 292 291 290 290 289 288 288 287 286 286 285 284 284 283 283 282 282 281 281 280 280 280 281 281 280 280 278 276 273 270 266 263 260 258 257 258 259 260 262 265 267 268 270 271 272 273 273 274 274
307 308 309 310 311 313 314 315 316 317 318 318 318 318 317 317 317 316 315 314 312 310 308 306 304 302 300 299 297 296 295 294 293 292 291 290 289 289 288 288 288 287 287 286 285 285 284 284 283 282 282 281 281 280 280 280 280 280 280 280 279 278 276 273 269 265 261 258 256 255 256 258 260 262 265 267 269 271 272 273 274 275 275 276 276 276
308 309 310 311 313 314 314 314 314 315 315 314 314 314 313 312 311 309 308 307 305 304 303 301 299 298 296 295 294 293 292 291 290 289 288 288 287 286 286 286 286 285 285 284 284 283 283 282 282 281 281 280 280 279 279 279 279 279 278 277 275 272 268 264 259 256 254 253 254 257 259 262 265 267 270 271 273 274 275 276 277 277 278 278 278 279
308 309 311 312 313 313 313 313 313 313 312 311 311 310 309 309 307 305 304 303 301 300 299 298 296 295 294 292 291 291 290 289 289 288 287 287 287 286 286 286 285 284 284 283 283 283 282 282 282 281 281 280 279 279 278 278 277 276 274 272 268 263 258 254 252 251 253 255 258 261 264 267 269 271 273 274 275 276 277 277 278 278 279 279 280 280
308 309 310 311 311 311 311 311 311 310 310 309 308 308 307 307 306 304 302 301 300 299 298 297 295 294 293 292 291 290 290 289 289 289 288 287 287 287 286 286 285 284 284 283 283 283 283 282 282 281 280 279 278 277 276 275 273 270 267 262 257 252 250 250 251 253 256 260 263 266 268 270 272 273 274 275 276 276 277 277 278 278 279 279 279 280
307 308 309 309 309 309 309 309 309 308 308 308 307 307 306 306 305 304 302 301 300 300 299 297 296 295 295 293 292 291 291 290 290 289 289 288 288 287 286 286 285 285 284 284 284 284 283 282 281 280 278 277 276 274 272 269 265 260 255 251 248 247 248 251 254 258 261 264 266 268 270 272 273 274 275 275 276 276 277 277 278 278 279 279 280 280
305 306 306 307 307 307 307 307 307 307 307 307 307 306 306 305 305 304 302 301 301 300 299 298 297 297 296 295 294 293 292 292 291 290 290 290 289 289 288 287 286 286 286 285 285 284 283 281 279 277 275 273 271 268 264 259 254 249 246 245 246 248 251 255 259 262 265 267 269 270 272 273 274 274 275 276 276 277 278 278 279 279 280 280 281 281
305 305 306 306 306 307 307 307 306 306 307 306 306 305 304 304 303 303 302 302 301 301 300 299 299 298 297 297 296 295 294 293 293 292 292 291 291 291 290 289 288 288 287 287 285 283 281 279 276 273 270 267 263 259 254 248 245 243 244 246 249 253 257 260 263 266 268 269 271 272 273 274 274 275 276 277 277 278 279 280 280 281 281 282 282 282
306 306 306 306 306 307 307 307 307 307 307 306 306 305 304 304 303 303 303 302 302 302 301 300 299 298 298 298 298 297 296 295 295 294 294 293 293 292 291 290 289 289 289 287 285 282 279 275 271 267 263 259 254 250 245 243 243 244 247 251 255 258 262 264 266 268 270 271 272 273 274 275 276 276 277 278 279 280 280 281 281 282 282 282 282 283
306 306 307 307 307 307 308 308 308 308 307 307 306 306 305 305 305 304 304 304 303 302 302 302 301 300 299 298 298 298 297 296 295 295 296 295 294 292 290 290 291 291 290 286 283 279 275 270 265 260 256 252 248 245 244 244 246 250 253 256 260 262 265 267 268 270 271 272 273 274 275 275 276 277 278 279 280 280 281 281 281 282 282 282 282 283
306 307 307 307 307 308 308 308 308 308 308 307 307 306 306 306 306 305 305 305 304 303 302 301 301 300 299 298 298 298 297 296 296 297 297 297 294 291 290 291 292 292 289 285 281 276 271 264 259 255 251 248 246 246 246 248 251 255 258 260 263 265 267 268 269 270 271 272 273 274 275 276 277 278 279 279 280 280 281 281 281 282 282 282 282 283
306 307 307 308 308 308 309 309 309 308 308 307 307 307 307 307 307 306 306 305 304 304 303 302 301 300 299 298 298 298 297 297 297 298 298 297 293 290 289 290 291 290 287 282 278 272 265 259 255 252 250 248 248 249 250 253 255 258 261 263 265 266 268 269 270 271 272 273 274 275 276 277 278 278 279 279 280 280 281 281 281 282 282 282 283 283
306 307 308 309 309 309 310 310 310 309 309 309 308 308 308 308 307 307 306 305 304 303 303 302 301 300 299 298 298 297 297 297 297 297 297 295 292 289 288 289 289 287 283 279 274 268 261 255 252 250 250 250 250 252 254 256 259 261 263 265 266 268 269 270 272 273 274 275 276 276 277 278 278 279 279 280 280 281 281 282 282 282 282 282 282 282
306 308 309 309 310 310 310 310 310 310 310 309 309 309 309 309 308 307 307 305 304 303 302 301 300 300 299 298 297 296 296 296 296 296 294 292 289 287 286 287 286 283 279 275 271 265 258 253 251 251 251 252 253 255 257 259 261 263 265 267 268 270 271 272 273 274 275 276 277 278 278 279 280 280 281 281 281 282 282 282 282 282 282 282 282 282
307 308 309 310 310 311 311 311 310 310 310 310 310 310 309 309 308 307 306 304 303 302 302 301 301 300 299 298 297 296 296 295 295 294 292 290 286 284 284 285 283 280 276 272 268 262 257 253 252 252 253 255 256 258 260 262 264 266 267 269 270 272 273 274 275 277 277 278 279 279 280 280 281 281 281 282 282 282 282 282 282 282 282 282 282 282
307 308 309 310 310 310 310 310 310 310 310 309 310 310 310 309 308 307 305 304 303 303 303 303 302 301 300 299 298 297 296 295 294 293 292 289 285 282 282 282 281 277 273 270 266 261 257 254 254 255 256 258 259 261 263 265 266 268 270 271 272 274 275 276 277 278 279 280 280 281 281 281 282 282 282 282 282 282 282 282 282 282 282 282 282 282
308 308 309 309 309 309 309 309 308 308 308 308 308 309 309 308 307 306 305 305 305 305 304 304 302 301 299 298 297 297 296 295 294 293 291 288 284 281 281 281 279 275 271 268 265 262 259 257 257 258 259 261 262 264 265 267 269 270 272 273 275 276 277 278 279 280 281 281 281 282 282 282 282 282 282 282 282 282 282 282 282 282 282 282 282 282
308 308 308 308 308 308 308 308 308 308 308 308 308 308 308 307 306 306 306 305 305 305 305 304 303 301 300 298 297 296 296 295 294 292 290 287 283 280 280 280 278 274 269 267 265 263 261 260 260 261 262 264 265 267 268 270 271 273 274 275 277 278 279 280 281 281 282 282 282 282 282 283 283 283 283 283 283 283 283 283 283 283 282 282 282 283
308 308 308 308 308 308 309 309 309 310 310 310 310 310 309 308 307 306 305 305 305 306 305 304 303 301 300 299 297 296 295 295 293 291 289 286 282 280 279 279 277 273 269 266 265 264 263 262 263 264 265 267 268 270 271 272 274 275 276 278 279 280 281 282 282 282 283 283 283 283 283 284 284 284 284 284 284 284 284 284 284 284 284 284 284 284
308 309 309 309 309 310 310 311 311 312 312 312 312 312 311 309 307 306 305 305 306 306 305 304 303 301 300 298 297 295 295 294 292 290 287 285 282 279 278 278 276 273 270 267 266 266 265 265 266 267 268 270 271 272 274 275 276 277 279 280 281 282 282 283 283 283 284 284 284 285 285 285 286 286 286 286 286 286 286 286 286 286 286 286 286 286
310 310 311 311 311 311 312 312 313 313 313 314 314 313 312 310 308 307 306 306 306 305 305 305 303 302 300 298 297 295 294 293 291 289 287 284 281 279 278 276 275 273 271 268 267 267 267 268 269 270 271 272 274 275 276 277 279 280 281 282 283 284 284 284 285 285 285 286 286 286 287 287 287 287 288 288 288 288 288 288 288 287 287 287 287 287
312 312 312 313 313 313 313 313 313 313 314 314 314 313 313 312 310 309 308 307 306 306 305 305 304 302 301 299 297 295 293 292 291 290 287 285 282 279 278 275 274 273 271 270 269 269 270 271 272 273 274 275 276 277 279 280 281 282 283 284 285 285 286 286 286 287 287 287 288 288 288 289 289 289 289 289 288 288 288 288 288 288 288 288 288 288
313 314 314 314 314 314 314 314 314 314 314 314 313 313 313 312 311 310 309 308 307 306 305 305 304 302 301 298 296 294 291 291 291 290 288 286 283 280 278 276 274 273 272 271 270 270 271 273 275 276 277 278 279 281 282 283 284 285 286 286 287 287 287 288 288 288 289 289 289 289 289 289 289 289 289 289 289 289 289 289 289 289 289 289 289 288
315 315 315 314 314 314 314 314 314 313 313 313 313 313 312 312 311 310 309 308 308 307 306 305 304 302 300 298 296 293 290 289 289 289 288 286 284 282 279 277 275 274 274 273 272 271 272 273 275 277 279 281 283 284 285 286 287 288 288 288 289 289 289 289 289 290 290 290 290 290 290 289 289 289 289 289 289 289 289 289 289 289 289 289 289 288
315 315 315 314 314 314 314 313 313 313 313 313 312 312 312 312 311 311 310 309 308 307 306 305 304 302 301 299 296 293 290 289 289 288 287 286 284 282 281 279 277 276 276 275 275 274 274 274 274 276 278 281 283 285 286 287 288 288 289 289 289 289 289 290 290 290 290 290 290 290 289 289 289 289 288 288 288 288 289 289 289 289 289 289 288 288
315 315 314 314 314 313 313 313 313 312 312 312 312 312 312 312 311 311 311 310 309 308 306 305 303 302 300 298 296 293 290 289 289 288 287 286 285 283 282 281 280 279 278 278 278 278 277 277 277 278 278 280 281 283 284 285 286 286 287 287 288 288 288 289 289 290 290 290 289 289 288 288 288 288 288 288 288 288 288 288 288 289 289 288 288 288
315 314 314 313 313 313 312 312 312 312 312 311 311 311 311 311 311 311 310 310 309 308 307 305 303 301 300 297 295 293 290 290 290 289 288 286 285 285 284 283 282 281 281 281 281 281 282 282 281 281 281 282 282 282 282 283 283 284 285 285 286 287 287 288 288 288 288 287 287 287 287 287 287 287 287 287 287 287 287 288 288 288 288 288 288 288
315 314 313 313 312 312 312 311 311 311 311 311 311 311 311 311 311 311 310 310 309 308 306 305 303 302 300 298 295 292 290 290 289 289 288 287 286 286 285 284 284 284 284 284 284 284 284 285 285 285 285 284 284 283 282 282 282 283 284 284 285 286 286 286 285 285 285 285 285 285 285 285 285 286 286 286 287 287 287 287 287 288 288 288 288 288
314 314 313 312 312 311 311 311 311 311 311 311 311 311 311 311 311 311 310 309 308 307 306 305 303 301 299 297 295 293 291 289 289 288 288 288 287 287 286 286 285 285 286 286 286 287 287 287 287 287 287 286 286 285 283 283 282 283 283 284 284 284 284 284 283 283 283 283 283 283 283 284 284 284 285 285 286 286 287 287 287 288 288 288 288 289
314 313 312 312 311 311 311 311 311 311 311 311 311 311 311 311 311 310 310 309 308 307 306 305 303 301 299 297 295 293 291 290 289 289 288 288 288 288 287 287 287 288 288 288 289 289 289 289 289 289 289 288 288 287 286 286 285 284 284 284 284 284 283 283 282 282 282 282 282 282 282 282 282 283 283 284 284 285 286 286 287 287 288 288 289 289
313 312 311 311 311 311 311 310 311 311 311 311 311 311 311 311 311 310 310 309 308 307 306 304 302 301 299 296 294 293 291 290 289 289 289 289 289 289 289 289 289 290 290 291 291 291 292 292 292 291 291 290 290 289 289 289 289 288 287 286 285 285 284 283 283 282 282 281 281 280 280 280 280 281 281 282 283 284 284 285 286 287 287 288 288 289
312 311 311 311 311 311 311 311 311 311 311 311 312 312 312 312 311 311 310 309 309 308 306 305 303 301 299 297 295 293 291 290 289 289 289 289 289 289 290 290 291 291 292 292 293 293 293 293 293 293 293 293 292 292 292 292 292 291 290 289 288 287 286 285 284 283 283 282 281 280 279 279 279 279 280 281 281 282 284 284 285 286 287 288 288 289
311 311 311 311 311 311 311 311 311 311 311 312 312 312 312 311 311 310 310 310 309 308 307 306 304 303 301 299 297 295 293 292 291 290 290 290 290 291 291 291 292 292 293 293 294 294 294 294 295 295 295 295 295 295 295 295 295 295 294 293 292 290 289 288 287 286 284 283 282 281 280 279 279 279 279 280 281 282 283 284 285 286 287 288 288 289
311 311 311 310 310 311 311 311 311 311 312 312 312 312 312 311 311 310 310 309 309 308 307 306 305 303 302 300 298 296 295 294 294 293 292 292 292 292 293 293 293 294 294 294 295 295 296 296 297 297 297 297 297 297 298 298 298 297 296 295 294 292 291 290 289 288 286 285 283 282 281 280 280 280 280 280 281 282 283 285 286 287 288 289 289 290
311 311 311 310 310 310 311 311 311 312 312 312 312 312 312 311 311 310 310 309 309 308 307 306 305 304 302 300 299 298 297 296 296 295 294 294 294 294 294 295 295 295 296 296 297 297 298 298 299 299 299 299 300 300 300 300 299 299 298 297 296 294 293 292 290 289 288 286 285 284 283 282 282 281 281 282 282 283 285 286 287 288 289 290 290 291
311 311 311 311 311 311 311 311 311 312 312 312 312 312 312 311 311 311 310 309 309 309 308 307 306 305 303 301 300 299 299 298 298 297 296 296 296 296 296 297 297 297 298 299 299 300 300 301 301 301 301 301 301 301 302 301 301 300 299 298 297 297 296 295 293 291 289 288 287 286 285 284 284 283 284 284 285 286 287 288 289 289 290 291 291 291
311 311 311 311 311 311 311 311 311 311 312 312 312 312 312 311 311 311 310 310 309 309 308 307 307 305 304 302 300 299 300 299 299 299 298 298 298 298 299 299 299 300 300 301 301 302 302 302 302 302 302 302 303 303 303 303 302 301 300 299 299 298 298 296 295 293 291 290 289 288 287 286 286 286 286 287 287 288 289 290 291 291 291 291 291 291
312 311 311 311 311 311 311 311 311 312 312 312 312 312 312 311 311 311 310 310 309 308 308 307 306 305 304 302 301 300 300 299 300 300 300 300 300 300 300 301 301 301 302 302 303 303 303 303 304 304 304 304 304 305 305 304 303 302 302 301 300 300 299 298 297 295 294 292 291 290 289 289 288 289 289 289 290 290 291 292 292 292 293 292 292 292
312 311 311 311 311 311 311 311 311 311 311 311 311 311 311 311 311 311 310 310 309 308 308 307 306 305 304 303 301 300 300 300 300 300 301 301 302 302 302 302 302 303 303 304 304 304 304 305 305 305 305 305 306 306 305 305 304 303 303 302 301 300 299 298 297 296 295 293 292 291 290 290 290 290 291 291 291 292 292 293 293 293 293 293 292 292
312 311 311 311 310 311 311 311 311 311 311 311 311 311 311 311 311 310 310 309 308 308 307 307 306 305 304 303 301 301 300 300 300 300 301 301 302 303 303 303 304 304 305 305 305 305 306 306 306 306 307 306 306 306 305 305 304 303 303 302 301 301 299 298 297 296 294 293 292 292 291 291 291 291 291 291 292 292 293 293 294 294 293 293 292 291
311 311 310 310 310 310 310 310 310 310 310 310 310 310 311 311 310 310 309 308 308 307 306 306 305 304 303 302 302 301 301 300 300 300 300 301 302 302 303 304 304 304 305 305 305 306 306 306 306 307 306 306 305 305 304 303 303 302 302 301 301 300 299 297 296 295 294 293 292 292 292 292 292 292 292 292 293 293 294 294 294 294 293 292 291 291
311 311 310 310 310 310 309 309 309 309 309 309 309 309 310 310 310 309 309 308 307 306 306 305 305 304 303 302 302 301 301 301 301 301 300 301 301 302 302 302 302 303 303 303 304 304 305 305 305 305 306 305 304 303 303 302 302 301 301 301 300 299 298 297 296 294 293 293 292 292 292 292 293 293 293 293 293 294 294 294 294 294 293 292 292 291
311 310 309 309 309 309 309 308 308 308 308 308 308 308 309 309 309 308 308 307 307 306 306 305 305 304 303 303 302 301 301 301 301 301 301 301 301 301 301 301 301 301 301 302 302 303 303 303 304 304 305 304 304 303 303 303 302 302 301 300 300 299 298 297 296 294 294 293 293 293 293 293 293 293 293 293 294 294 295 295 294 294 294 294 293 292
Height
3074 3073 3072 3071 3070 3069 3068 3067 3066 3064 3062 3060 3058 3056 3053 3052 3050 3049 3049 3049 3049 3050 3050 3051 3051 3051 3052 3052 3052 3052 3052 3052 3052 3052 3052 3051 3051 3051 3051 3051 3051 3051 3051 3051 3051 3052 3052 3052 3053 3053 3053 3054 3054 3054 3055 3055 3055 3055 3056 3056 3056 3056 3056 3056 3056 3056 3056 3056 3056 3056 3056 3056 3056 3057 3057 3057 3057 3057 3057 3057 3056 3056 3057 3057 3057 3057
3072 3071 3070 3069 3068 3067 3066 3065 3064 3063 3061 3059 3057 3055 3053 3052 3050 3049 3048 3048 3048 3048 3048 3049 3049 3049 3049 3050 3050 3050 3050 3050 3050 3050 3050 3050 3050 3049 3049 3049 3049 3049 3050 3050 3050 3050 3051 3051 3051 3052 3052 3052 3052 3053 3053 3053 3053 3053 3054 3054 3054 3054 3054 3053 3053 3053 3053 3053 3053 3053 3053 3054 3054 3054 3054 3054 3054 3054 3054 3053 3053 3053 3054 3054 3054 3054
3070 3070 3069 3068 3067 3066 3065 3064 3063 3061 3060 3059 3057 3055 3053 3052 3051 3049 3049 3048 3047 3047 3047 3047 3047 3048 3048 3048 3048 3048 3048 3048 3048 3048 3048 3048 3048 3048 3048 3048 3048 3048 3048 3048 3049 3049 3049 3050 3050 3050 3051 3051 3051 3051 3051 3051 3051 3051 3051 3051 3051 3051 3051 3051 3051 3050 3050 3050 3050 3051 3051 3051 3051 3051 3051 3051 3051 3051 3051 3051 3051 3051 3051 3051 3051 3052
3069 3068 3067 3066 3065 3064 3063 3062 3061 3060 3059 3058 3056 3055 3053 3052 3051 3050 3049 3048 3047 3047 3047 3047 3047 3047 3047 3047 3047 3047 3047 3046 3046 3046 3046 3046 3046 3046 3046 3046 3047 3047 3047 3047 3047 3048 3048 3048 3048 3049 3049 3049 3049 3049 3049 3049 3049 3049 3049 3049 3049 3048 3048 3048 3048 3048 3048 3048 3048 3048 3048 3048 3048 3048 3048 3048 3048 3048 3048 3048 3048 3048 3049 3049 3049 3050
3067 3066 3065 3065 3064 3063 3062 3061 3060 3059 3058 3056 3055 3054 3053 3052 3051 3050 3049 3048 3047 3047 3047 3047 3047 3047 3047 3046 3046 3046 3046 3046 3045 3045 3045 3045 3045 3045 3045 3045 3045 3046 3046 3046 3046 3046 3046 3046 3047 3047 3047 3047 3047 3047 3047 3046 3046 3046 3046 3046 3046 3046 3046 3045 3045 3045 3045 3045 3045 3045 3045 3046 3046 3046 3046 3046 3046 3046 3046 3046 3046 3046 3047 3047 3047 3048
3065 3065 3064 3063 3062 3062 3061 3060 3059 3058 3057 3056 3054 3053 3052 3051 3050 3049 3048 3048 3047 3047 3046 3046 3046 3046 3046 3046 3045 3045 3045 3044 3044 3044 3044 3044 3044 3044 3044 3044 3044 3044 3044 3044 3044 3045 3045 3045 3045 3045 3045 3045 3045 3044 3044 3044 3044 3044 3043 3043 3043 3043 3043 3043 3043 3042 3042 3042 3042 3043 3043 3043 3043 3043 3043 3043 3043 3043 3044 3044 3044 3045 3045 3046 3046 3046
3064 3063 3062 3061 3061 3060 3060 3059 3058 3057 3056 3055 3053 3052 3051 3050 3049 3049 3048 3047 3046 3046 3046 3045 3045 3045 3044 3044 3044 3044 3043 3043 3043 3043 3043 3043 3043 3043 3043 3043 3043 3042 3042 3043 3043 3043 3043 3043 3042 3042 3042 3042 3042 3042 3042 3041 3041 3041 3041 3041 3040 3040 3040 3040 3040 3040 3040 3040 3040 3040 3040 3040 3041 3041 3041 3041 3041 3042 3042 3042 3043 3043 3043 3044 3044 3044
3062 3061 3061 3060 3060 3059 3058 3057 3056 3056 3055 3054 3052 3051 3050 3049 3048 3048 3047 3046 3046 3045 3045 3044 3044 3043 3043 3043 3043 3042 3042 3042 3042 3042 3042 3042 3041 3041 3041 3041 3041 3041 3041 3041 3041 3041 3041 3040 3040 3040 3040 3040 3040 3040 3039 3039 3039 3038 3038 3038 3038 3038 3037 3037 3037 3037 3037 3038 3038 3038 3038 3038 3039 3039 3039 3040 3040 3040 3040 3041 3041 3041 3041 3042 3042 3042
3061 3060 3059 3059 3058 3057 3057 3056 3055 3054 3053 3052 3051 3050 3049 3048 3048 3047 3046 3046 3045 3045 3044 3044 3043 3043 3042 3042 3042 3042 3041 3041 3041 3041 3041 3041 3040 3040 3040 3040 3039 3039 3039 3039 3039 3038 3038 3038 3038 3038 3038 3037 3037 3037 3036 3036 3036 3036 3036 3035 3035 3035 3035 3035 3035 3035 3036 3036 3036 3036 3036 3037 3037 3037 3037 3038 3038 3038 3038 3039 3039 3039 3039 3040 3040 3040
3059 3059 3058 3057 3057 3056 3055 3054 3054 3053 3052 3051 3050 3049 3048 3048 3047 3046 3045 3045 3044 3044 3043 3043 3043 3042 3042 3041 3041 3041 3041 3040 3040 3040 3040 3039 3039 3038 3038 3038 3037 3037 3037 3037 3037 3036 3036 3036 3036 3036 3035 3035 3035 3034 3034 3034 3033 3033 3033 3033 3033 3033 3033 3033 3033 3033 3034 3034 3034 3035 3035 3035 3036 3036 3036 3036 3036 3036 3036 3036 3037 3037 3037 3037 3037 3037
3058 3057 3056 3056 3055 3055 3054 3053 3052 3051 3050 3049 3048 3048 3047 3046 3046 3045 3045 3044 3043 3043 3042 3042 3041 3041 3041 3040 3040 3039 3039 3039 3039 3038 3038 3037 3037 3037 3036 3036 3036 3035 3035 3035 3035 3034 3034 3034 3033 3033 3033 3032 3032 3031 3031 3031 3031 3031 3031 3031 3031 3031 3031 3031 3031 3032 3032 3032 3033 3033 3033 3034 3034 3034 3034 3034 3034 3034 3034 3034 3035 3035 3035 3035 3035 3035
3056 3056 3055 3054 3053 3053 3052 3051 3050 3050 3049 3048 3047 3046 3046 3045 3044 3044 3043 3043 3042 3041 3041 3041 3040 3040 3039 3039 3038 3038 3037 3037 3036 3036 3036 3035 3035 3035 3034 3034 3034 3033 3033 3032 3032 3032 3031 3031 3031 3031 3030 3030 3029 3029 3028 3028 3028 3028 3028 3028 3029 3029 3029 3030 3030 3030 3031 3031 3031 3031 3032 3032 3032 3032 3032 3032 3032 3032 3032 3032 3032 3032 3032 3032 3033 3033
3055 3054 3053 3052 3052 3051 3050 3050 3049 3048 3047 3046 3045 3045 3044 3043 3043 3042 3041 3041 3040 3040 3039 3039 3038 3037 3037 3037 3036 3036 3035 3035 3034 3034 3033 3033 3033 3032 3032 3032 3031 3031 3030 3030 3030 3029 3029 3029 3028 3028 3027 3027 3026 3026 3026 3026 3026 3026 3026 3027 3027 3027 3028 3028 3029 3029 3029 3030 3030 3030 3030 3030 3030 3030 3030 3030 3030 3030 3030 3030 3030 3030 3030 3030 3030 3031
3053 3053 3052 3051 3050 3050 3049 3048 3047 3046 3046 3045 3044 3043 3042 3041 3041 3040 3040 3039 3038 3037 3037 3036 3036 3035 3035 3034 3034 3033 3033 3033 3032 3032 3031 3031 3030 3030 3029 3029 3029 3028 3027 3027 3027 3026 3026 3026 3025 3025 3024 3024 3024 3024 3024 3024 3024 3025 3025 3025 3026 3026 3026 3027 3027 3027 3028 3028 3028 3028 3028 3028 3028 3028 3028 3028 3028 3028 3028 3028 3028 3028 3028 3028 3028 3028
3052 3051 3051 3050 3049 3048 3047 3046 3046 3045 3044 3043 3042 3041 3041 3040 3039 3038 3037 3037 3036 3036 3035 3034 3034 3033 3032 3032 3031 3031 3031 3031 3030 3030 3029 3028 3028 3027 3026 3026 3026 3025 3025 3024 3024 3024 3023 3023 3022 3022 3022 3022 3022 3022 3022 3022 3023 3023 3024 3024 3024 3025 3025 3025 3026 3026 3026 3026 3026 3026 3026 3026 3026 3026 3026 3026 3026 3026 3026 3026 3026 3026 3026 3026 3026 3026
3051 3050 3049 3048 3047 3047 3046 3045 3044 3043 3042 3042 3041 3040 3039 3038 3037 3036 3036 3035 3034 3034 3033 3032 3031 3031 3030 3030 3029 3029 3028 3028 3028 3027 3026 3026 3025 3024 3024 3023 3023 3023 3022 3022 3021 3021 3021 3021 3020 3020 3020 3020 3020 3021 3021 3021 3021 3022 3022 3023 3023 3023 3023 3024 3024 3024 3024 3024 3024 3024 3024 3024 3024 3024 3024 3024 3024 3024 3023 3023 3023 3023 3023 3023 3023 3023
3049 3048 3047 3047 3046 3045 3045 3044 3043 3042 3041 3040 3039 3038 3037 3036 3036 3035 3034 3033 3033 3032 3031 3031 3030 3029 3028 3027 3027 3026 3026 3026 3025 3025 3024 3024 3023 3022 3021 3020 3020 3021 3021 3020 3019 3019 3019 3019 3018 3018 3018 3018 3019 3019 3020 3020 3020 3021 3021 3021 3021 3021 3021 3022 3022 3022 3022 3022 3022 3022 3022 3022 3022 3021 3021 3021 3021 3021 3021 3021 3021 3021 3021 3021 3020 3020
3047 3047 3046 3045 3045 3044 3043 3042 3041 3041 3040 3039 3038 3037 3036 3035 3034 3033 3032 3032 3031 3030 3030 3029 3028 3027 3026 3025 3025 3025 3024 3023 3023 3023 3022 3022 3021 3020 3019 3018 3018 3019 3018 3018 3017 3017 3017 3017 3017 3017 3017 3017 3017 3018 3018 3019 3019 3019 3019 3020 3020 3020 3020 3020 3020 3020 3020 3020 3020 3020 3020 3020 3020 3020 3019 3019 3019 3019 3019 3019 3018 3018 3018 3018 3018 3018
3046 3045 3044 3044 3043 3042 3041 3041 3040 3039 3038 3037 3036 3035 3034 3034 3033 3032 3031 3030 3029 3029 3028 3027 3026 3026 3025 3024 3023 3023 3022 3021 3021 3021 3021 3020 3019 3018 3016 3016 3016 3017 3016 3016 3016 3016 3016 3015 3015 3015 3016 3016 3016 3016 3017 3017 3017 3017 3017 3018 3018 3018 3018 3018 3018 3018 3018 3018 3018 3018 3018 3017 3017 3017 3017 3017 3017 3017 3016 3016 3016 3016 3016 3016 3015 3015
3045 3044 3043 3042 3041 3041 3040 3039 3038 3037 3036 3036 3035 3034 3033 3032 3031 3030 3029 3029 3028 3027 3026 3026 3025 3024 3023 3022 3021 3021 3020 3020 3019 3019 3019 3018 3017 3016 3015 3015 3015 3015 3015 3014 3014 3014 3014 3014 3014 3014 3014 3014 3015 3015 3015 3016 3016 3016 3016 3016 3016 3016 3016 3016 3016 3016 3016 3016 3016 3016 3016 3015 3015 3015 3015 3015 3014 3014 3014 3014 3013 3013 3013 3013 3012 3012
3043 3042 3041 3041 3040 3039 3038 3037 3037 3036 3035 3034 3033 3032 3031 3031 3030 3029 3028 3027 3026 3026 3025 3024 3023 3022 3021 3021 3020 3019 3019 3018 3017 3017 3017 3017 3016 3014 3013 3013 3013 3014 3013 3013 3013 3013 3013 3012 3012 3012 3012 3013 3013 3013 3014 3014 3014 3014 3014 3014 3014 3014 3014 3014 3014 3014 3014 3013 3013 3013 3013 3013 3013 3012 3012 3012 3012 3011 3011 3011 3011 3011 3010 3010 3010 3010
3041 3041 3040 3039 3038 3037 3037 3036 3035 3034 3033 3033 3032 3031 3030 3029 3028 3027 3027 3026 3025 3024 3023 3022 3021 3021 3020 3019 3018 3018 3017 3016 3016 3016 3016 3015 3014 3013 3011 3011 3012 3012 3012 3011 3011 3011 3011 3011 3011 3011 3011 3011 3011 3012 3012 3012 3012 3012 3012 3012 3011 3011 3011 3011 3011 3011 3011 3011 3011 3011 3011 3011 3010 3010 3010 3009 3009 3009 3009 3008 3008 3008 3008 3007 3007 3007
3040 3039 3038 3038 3037 3036 3035 3035 3034 3033 3032 3031 3030 3029 3028 3028 3027 3026 3025 3024 3023 3023 3022 3021 3020 3019 3018 3017 3016 3016 3015 3015 3014 3014 3014 3013 3012 3011 3010 3010 3010 3010 3010 3010 3010 3010 3010 3010 3009 3009 3009 3010 3010 3010 3010 3010 3010 3010 3010 3010 3009 3009 3009 3009 3009 3009 3009 3009 3008 3008 3008 3008 3007 3007 3007 3006 3006 3006 3006 3006 3005 3005 3005 3004 3004 3004
3039 3038 3037 3036 3035 3034 3034 3033 3032 3031 3030 3029 3028 3027 3027 3026 3025 3024 3024 3023 3022 3021 3020 3020 3019 3017 3016 3016 3015 3014 3013 3013 3012 3012 3012 3011 3011 3009 3008 3008 3009 3009 3009 3008 3008 3008 3008 3008 3008 3007 3008 3008 3008 3008 3008 3008 3008 3007 3007 3007 3007 3007 3007 3007 3006 3006 3006 3006 3006 3006 3005 3005 3005 3004 3004 3004 3004 3003 3003 3003 3002 3002 3002 3001 3001 3001
3037 3036 3036 3035 3034 3033 3032 3031 3031 3030 3029 3028 3027 3026 3025 3024 3023 3022 3021 3021 3020 3019 3019 3018 3017 3016 3015 3014 3013 3012 3011 3011 3010 3010 3010 3010 3009 3008 3007 3007 3007 3007 3007 3007 3006 3006 3006 3006 3006 3006 3006 3006 3006 3006 3006 3006 3006 3005 3005 3005 3005 3005 3004 3004 3004 3004 3004 3003 3003 3003 3002 3002 3002 3001 3001 3001 3001 3000 3000 3000 2999 2999 2999 2998 2998 2998
3036 3035 3034 3033 3032 3032 3031 3030 3029 3028 3027 3026 3026 3025 3024 3023 3022 3021 3020 3019 3018 3017 3016 3016 3015 3014 3013 3012 3011 3010 3009 3009 3008 3008 3008 3008 3007 3006 3005 3005 3006 3006 3006 3005 3005 3005 3005 3004 3004 3004 3004 3004 3004 3004 3004 3004 3003 3003 3003 3002 3002 3002 3002 3002 3001 3001 3001 3001 3000 3000 3000 2999 2999 2999 2998 2998 2998 2997 2997 2996 2996 2996 2995 2995 2995 2995
3034 3033 3033 3032 3031 3030 3029 3028 3027 3026 3026 3025 3024 3023 3022 3021 3020 3019 3018 3017 3016 3015 3015 3014 3013 3012 3011 3010 3009 3008 3007 3007 3006 3006 3006 3006 3005 3005 3004 3003 3004 3004 3004 3003 3003 3003 3003 3002 3002 3002 3002 3002 3002 3002 3002 3001 3001 3001 3001 3000 3000 3000 3000 2999 2999 2999 2998 2998 2998 2997 2997 2996 2996 2996 2995 2995 2994 2994 2993 2993 2992 2992 2992 2991 2991 2991
3033 3032 3031 3030 3029 3028 3027 3026 3026 3025 3024 3023 3022 3021 3021 3020 3019 3017 3016 3015 3014 3013 3013 3012 3011 3010 3009 3009 3007 3006 3005 3005 3005 3004 3004 3004 3004 3003 3002 3002 3002 3002 3002 3002 3001 3001 3001 3001 3000 3000 3000 3000 3000 3000 2999 2999 2999 2998 2998 2998 2998 2997 2997 2997 2996 2996 2996 2995 2995 2994 2994 2993 2993 2992 2992 2991 2991 2990 2990 2989 2989 2988 2988 2988 2988 2988
3031 3030 3029 3028 3027 3026 3026 3025 3024 3023 3022 3021 3020 3019 3018 3017 3016 3016 3015 3013 3012 3011 3011 3010 3009 3008 3007 3007 3006 3005 3003 3003 3002 3002 3002 3002 3002 3001 3001 3000 3000 3000 3000 3000 3000 2999 2999 2999 2999 2998 2998 2998 2998 2997 2997 2997 2996 2996 2996 2996 2995 2995 2995 2994 2994 2993 2993 2992 2992 2991 2991 2990 2990 2989 2988 2988 2987 2987 2986 2986 2985 2985 2984 2984 2984 2984
3029 3028 3027 3026 3026 3025 3024 3023 3022 3021 3020 3019 3018 3017 3016 3015 3014 3013 3012 3011 3011 3010 3009 3008 3007 3006 3006 3005 3004 3003 3001 3001 3000 3000 3000 3000 3000 3000 2999 2999 2998 2998 2998 2998 2998 2997 2997 2997 2997 2996 2996 2996 2996 2995 2995 2995 2994 2994 2993 2993 2993 2992 2992 2991 2991 2991 2990 2990 2989 2988 2987 2987 2986 2986 2985 2984 2984 2983 2983 2982 2982 2981 2981 2981 2981 2981
3027 3026 3025 3024 3024 3023 3022 3021 3020 3019 3018 3017 3016 3015 3014 3013 3012 3011 3010 3009 3008 3007 3006 3006 3005 3004 3004 3003 3002 3001 3000 2998 2998 2998 2998 2998 2998 2998 2998 2997 2996 2996 2996 2996 2996 2996 2996 2995 2995 2995 2994 2994 2993 2993 2993 2992 2992 2991 2991 2991 2990 2990 2989 2989 2988 2988 2987 2986 2986 2985 2984 2984 2983 2982 2981 2981 2981 2980 2980 2979 2979 2978 2978 2977 2977 2977
3025 3024 3023 3022 3021 3021 3020 3019 3018 3017 3016 3015 3014 3013 3012 3011 3010 3009 3008 3007 3006 3005 3005 3004 3003 3002 3001 3001 3000 2999 2998 2997 2996 2996 2996 2996 2996 2996 2996 2996 2995 2994 2994 2994 2994 2995 2995 2994 2994 2993 2993 2992 2991 2991 2991 2990 2990 2989 2989 2988 2988 2987 2986 2986 2985 2985 2984 2983 2983 2982 2981 2980 2980 2979 2978 2978 2977 2977 2976 2976 2975 2975 2974 2974 2974 2974
3023 3022 3021 3021 3020 3019 3018 3017 3016 3015 3014 3013 3012 3011 3010 3009 3008 3007 3006 3005 3004 3003 3002 3002 3001 3000 3000 2999 2998 2997 2996 2995 2994 2994 2994 2994 2994 2994 2994 2993 2993 2992 2992 2992 2992 2992 2993 2993 2993 2992 2992 2991 2991 2990 2989 2988 2987 2987 2986 2986 2985 2985 2984 2983 2982 2982 2981 2980 2980 2979 2978 2977 2976 2976 2975 2975 2974 2974 2973 2973 2972 2972 2971 2971 2970 2970
3022 3021 3020 3019 3018 3017 3016 3015 3014 3013 3012 3011 3010 3009 3008 3007 3006 3005 3004 3003 3002 3001 3000 3000 2999 2998 2998 2997 2996 2995 2994 2993 2992 2992 2992 2992 2992 2992 2991 2991 2991 2991 2990 2990 2990 2990 2990 2991 2991 2991 2991 2990 2990 2989 2988 2986 2986 2985 2984 2984 2983 2982 2981 2981 2980 2979 2978 2977 2976 2976 2975 2974 2973 2973 2972 2971 2971 2971 2970 2970 2969 2969 2968 2967 2967 2966
3020 3019 3018 3017 3016 3015 3014 3013 3012 3011 3010 3009 3008 3007 3006 3005 3004 3003 3002 3001 3000 2999 2998 2997 2997 2996 2996 2995 2994 2993 2992 2991 2990 2990 2990 2990 2990 2990 2990 2989 2989 2989 2988 2988 2988 2988 2988 2988 2988 2989 2988 2988 2988 2987 2986 2985 2984 2983 2982 2982 2981 2980 2979 2978 2977 2976 2976 2975 2974 2973 2972 2971 2970 2970 2969 2969 2968 2968 2967 2967 2966 2966 2965 2964 2964 2963
3018 3017 3016 3015 3014 3013 3012 3011 3010 3009 3008 3007 3006 3005 3004 3003 3002 3001 3000 2999 2998 2997 2996 2996 2995 2994 2993 2993 2992 2991 2991 2989 2988 2988 2988 2988 2988 2988 2987 2987 2987 2987 2986 2986 2986 2986 2986 2986 2986 2986 2986 2986 2986 2985 2985 2984 2982 2981 2981 2980 2979 2978 2977 2976 2975 2974 2973 2972 2971 2970 2969 2968 2967 2967 2966 2966 2965 2965 2964 2964 2963 2962 2962 2961 2961 2960
3016 3015 3014 3013 3012 3011 3010 3009 3008 3007 3006 3005 3004 3003 3002 3001 3000 2999 2998 2997 2996 2995 2994 2994 2993 2992 2991 2991 2990 2989 2988 2987 2987 2986 2986 2986 2986 2986 2986 2985 2985 2985 2985 2984 2984 2984 2984 2984 2983 2983 2983 2983 2983 2982 2982 2981 2981 2980 2979 2978 2977 2976 2975 2974 2972 2971 2971 2970 2969 2968 2967 2966 2965 2964 2963 2963 2962 2961 2961 2961 2960 2960 2959 2958 2957 2957
3014 3013 3012 3011 3010 3009 3008 3007 3006 3005 3004 3003 3002 3001 3000 2999 2998 2997 2996 2995 2994 2993 2992 2992 2991 2990 2989 2989 2988 2987 2986 2986 2985 2984 2984 2984 2984 2984 2984 2983 2983 2983 2983 2982 2982 2981 2981 2981 2981 2981 2980 2980 2980 2979 2979 2978 2978 2977 2977 2976 2975 2973 2972 2971 2970 2969 2968 2967 2966 2965 2964 2963 2962 2961 2961 2960 2959 2959 2958 2958 2957 2956 2956 2955 2955 2954
3012 3011 3010 3009 3008 3007 3006 3005 3004 3003 3002 3001 3000 2999 2998 2997 2996 2995 2994 2993 2992 2991 2991 2990 2989 2988 2987 2987 2986 2985 2985 2984 2983 2983 2982 2982 2982 2982 2982 2981 2981 2981 2980 2980 2980 2979 2979 2978 2978 2977 2977 2977 2976 2976 2976 2975 2974 2974 2973 2973 2972 2971 2970 2968 2967 2966 2966 2965 2964 2963 2962 2961 2960 2959 2958 2957 2957 2956 2956 2955 2955 2954 2953 2952 2951 2951
3011 3010 3008 3007 3006 3005 3004 3003 3002 3001 3000 2999 2998 2997 2996 2995 2994 2993 2992 2991 2990 2989 2989 2988 2987 2986 2986 2985 2984 2983 2983 2982 2982 2981 2981 2980 2980 2980 2980 2980 2979 2979 2978 2978 2977 2977 2976 2976 2975 2975 2974 2974 2973 2973 2972 2972 2971 2970 2969 2969 2968 2968 2967 2966 2965 2963 2963 2962 2961 2960 2959 2958 2957 2957 2956 2955 2955 2954 2953 2953 2952 2951 2950 2950 2949 2948
3009 3008 3006 3006 3005 3003 3002 3001 3000 2999 2998 2997 2996 2995 2994 2993 2992 2991 2990 2989 2988 2987 2987 2986 2985 2984 2983 2983 2982 2981 2981 2980 2980 2980 2979 2979 2978 2978 2978 2977 2977 2976 2976 2976 2975 2974 2974 2973 2972 2972 2971 2971 2970 2970 2969 2969 2968 2967 2966 2965 2965 2964 2964 2963 2962 2961 2960 2959 2958 2957 2956 2956 2955 2954 2953 2953 2952 2951 2951 2950 2949 2949 2948 2947 2946 2946
3007 3006 3005 3004 3002 3001 3000 2999 2998 2997 2996 2995 2994 2993 2992 2991 2990 2989 2988 2987 2986 2986 2985 2984 2983 2983 2982 2981 2980 2979 2979 2978 2978 2977 2977 2977 2976 2976 2976 2975 2975 2974 2974 2973 2972 2972 2971 2971 2970 2969 2968 2967 2967 2966 2966 2966 2965 2964 2963 2961 2961 2961 2961 2960 2959 2958 2956 2956 2955 2954 2953 2953 2952 2951 2951 2950 2950 2949 2948 2947 2947 2946 2945 2944 2943 2942
3005 3004 3003 3002 3001 2999 2998 2997 2996 2995 2994 2993 2992 2991 2990 2989 2988 2987 2986 2985 2985 2984 2983 2982 2982 2981 2980 2979 2978 2977 2977 2976 2976 2976 2975 2975 2974 2974 2973 2973 2972 2972 2971 2971 2970 2969 2969 2968 2967 2966 2965 2965 2964 2963 2963 2962 2962 2961 2960 2959 2958 2957 2957 2957 2956 2955 2954 2953 2952 2951 2950 2950 2949 2948 2948 2947 2947 2946 2946 2945 2944 2943 2942 2941 2940 2939
3003 3002 3001 3000 2998 2997 2996 2995 2994 2993 2992 2991 2990 2989 2988 2987 2986 2985 2984 2983 2982 2982 2981 2980 2980 2979 2978 2977 2976 2975 2975 2974 2974 2973 2973 2972 2972 2971 2971 2970 2970 2969 2969 2968 2967 2966 2966 2965 2964 2964 2963 2962 2961 2961 2960 2959 2959 2958 2957 2956 2955 2954 2953 2953 2953 2952 2951 2950 2949 2948 2947 2946 2946 2945 2945 2945 2944 2944 2943 2942 2941 2941 2940 2939 2937 2936
3001 3000 2999 2998 2996 2995 2994 2993 2992 2991 2990 2989 2988 2987 2986 2985 2984 2983 2982 2981 2981 2980 2979 2978 2978 2977 2976 2976 2975 2974 2973 2972 2971 2971 2970 2970 2970 2969 2968 2968 2967 2966 2966 2965 2965 2964 2963 2962 2961 2961 2960 2959 2958 2958 2957 2956 2955 2955 2954 2953 2952 2951 2951 2950 2949 2949 2948 2947 2946 2945 2944 2943 2942 2942 2942 2942 2941 2941 2940 2940 2939 2938 2937 2936 2935 2934
2999 2998 2996 2996 2994 2993 2992 2991 2990 2989 2988 2987 2986 2985 2984 2983 2982 2981 2981 2980 2979 2978 2977 2976 2976 2975 2975 2974 2973 2972 2971 2971 2970 2969 2968 2967 2967 2966 2966 2965 2964 2964 2963 2962 2962 2961 2961 2960 2959 2958 2957 2956 2956 2955 2954 2953 2952 2951 2951 2950 2949 2948 2948 2947 2946 2946 2945 2944 2943 2942 2941 2940 2939 2939 2938 2938 2938 2938 2937 2937 2936 2935 2934 2933 2931 2931
2997 2996 2995 2993 2992 2991 2990 2989 2988 2986 2986 2985 2983 2983 2982 2981 2980 2979 2978 2978 2977 2976 2975 2975 2974 2974 2973 2972 2971 2971 2970 2969 2968 2967 2966 2965 2964 2963 2963 2962 2961 2961 2960 2960 2959 2958 2958 2957 2956 2956 2954 2953 2953 2952 2951 2950 2949 2948 2947 2947 2946 2946 2945 2944 2943 2942 2942 2941 2940 2939 2938 2937 2936 2936 2935 2935 2935 2935 2935 2934 2933 2932 2931 2929 2928 2927
2995 2993 2992 2991 2990 2989 2988 2987 2986 2985 2983 2982 2981 2981 2980 2979 2978 2977 2976 2976 2975 2974 2974 2973 2972 2972 2971 2971 2970 2969 2969 2968 2967 2966 2964 2963 2962 2961 2960 2959 2959 2958 2957 2957 2956 2956 2955 2954 2953 2953 2952 2951 2950 2949 2949 2948 2946 2946 2945 2944 2943 2943 2942 2941 2941 2940 2939 2938 2937 2936 2935 2934 2933 2932 2932 2931 2931 2931 2931 2931 2930 2929 2927 2926 2925 2924
2992 2991 2990 2989 2988 2987 2986 2985 2984 2983 2981 2980 2979 2978 2977 2976 2976 2975 2974 2974 2973 2972 2972 2971 2971 2970 2970 2969 2968 2967 2967 2966 2965 2964 2963 2962 2961 2960 2958 2957 2956 2956 2955 2954 2954 2953 2952 2952 2951 2950 2949 2948 2947 2946 2946 2945 2944 2943 2942 2941 2941 2940 2939 2938 2938 2937 2936 2935 2934 2933 2932 2931 2931 2929 2928 2928 2928 2928 2928 2928 2927 2926 2925 2923 2922 2921
2990 2989 2988 2987 2986 2985 2984 2983 2982 2981 2980 2978 2977 2976 2975 2974 2974 2973 2972 2972 2971 2971 2970 2969 2969 2968 2968 2967 2966 2966 2965 2964 2963 2962 2961 2960 2959 2958 2957 2956 2955 2954 2953 2952 2952 2951 2950 2950 2949 2948 2947 2946 2945 2944 2943 2942 2942 2941 2940 2939 2938 2937 2936 2936 2935 2934 2933 2932 2931 2931 2930 2929 2928 2926 2925 2924 2924 2924 2924 2925 2924 2923 2922 2920 2919 2918
2988 2987 2986 2985 2984 2983 2982 2981 2980 2979 2977 2976 2976 2974 2973 2972 2971 2971 2970 2970 2969 2968 2968 2967 2967 2966 2966 2965 2964 2963 2963 2962 2961 2960 2959 2958 2957 2956 2955 2954 2953 2952 2951 2950 2950 2949 2948 2947 2947 2946 2946 2944 2942 2941 2941 2940 2939 2938 2937 2936 2936 2935 2933 2933 2932 2931 2930 2929 2929 2928 2927 2926 2925 2924 2922 2921 2921 2920 2921 2921 2921 2920 2919 2917 2916 2914